Kaiser, MO

10:47 PM CDT on September 24, 2017 (GMT -0500)
Fine Memorial

Weather History for KAIZ - January, 2014

Change the Weather History Date:

Friday, January 17, 2014

  Actual Average Record
Temperature  
Mean Temperature 22 °F -  
Max Temperature 28 °F 39 °F 57 °F (2015)
Min Temperature 15 °F 21 °F -11 °F (1997)
Degree Days  
Heating Degree Days 44    
Moisture  
Dew Point 5 °F    
Average Humidity 50    
Maximum Humidity 73    
Minimum Humidity 37    
Precipitation  
Precipitation 0.00 in - - ()
Sea Level Pressure  
Sea Level Pressure 30.08 in    
Wind  
Wind Speed 11 mph (WNW)    
Max Wind Speed 20 mph    
Max Gust Speed 37 mph    
Visibility 10 miles    
Events      
Averages and records for this station are not official NWS values.
T = Trace of Precipitation, MM = Missing Value Source: NWS Daily Summary

Daily Weather History Graph

Daily Weather History Graph

Search for Another Location

Airport or City:

Trip Planner

Search our weather history database for the weather conditions in past years. The results will help you decide how hot, cold, wet, or windy it might be!

Date:

Astronomy

Jan. 17, 2014 Rise Set
Actual Time 7:24 AM CST 5:16 PM CST
Civil Twilight 6:55 AM CST 5:45 PM CST
Nautical Twilight 6:23 AM CST 6:17 PM CST
Astronomical Twilight 5:51 AM CST 6:49 PM CST
Moon 7:01 PM CST (1/17) 7:54 AM CST (1/17)
Length of Visible Light 10h 49m
Length of Day
9h 52m
Full, 98% of the Moon is Illuminated
Jan 17
Full
Jan 23
Last Quarter
Jan 30
New
Feb 6
First Quarter
Feb 14
Full

Hourly Weather History & Observations

Time (CST) Temp. Windchill Dew Point Humidity Pressure Visibility Wind Dir Wind Speed Gust Speed Precip Events Conditions
12:15 AM 23.0 °F 9.6 °F 6.8 °F 50% 29.99 in 10.0 mi NW 16.1 mph 26.5 mph N/A   Overcast
12:35 AM 21.2 °F 7.3 °F 5.0 °F 50% 30.00 in 10.0 mi WNW 16.1 mph 25.3 mph N/A   Mostly Cloudy
12:55 AM 21.2 °F 6.8 °F 5.0 °F 50% 30.00 in 10.0 mi NNW 17.3 mph 26.5 mph N/A   Overcast
1:15 AM 19.4 °F 6.6 °F 8.6 °F 63% 30.00 in 4.0 mi WNW 12.7 mph 25.3 mph N/A   Mostly Cloudy
1:35 AM 19.4 °F 7.2 °F 3.2 °F 49% 30.01 in 10.0 mi WNW 11.5 mph 25.3 mph N/A   Scattered Clouds
1:55 AM 17.6 °F 3.7 °F 1.4 °F 49% 30.02 in 10.0 mi WNW 13.8 mph 27.6 mph N/A   Partly Cloudy
2:15 AM 17.6 °F 1.3 °F 1.4 °F 49% 30.03 in 10.0 mi WNW 19.6 mph 36.8 mph N/A   Partly Cloudy
2:35 AM 17.6 °F 2.7 °F -0.4 °F 45% 30.03 in 10.0 mi NW 16.1 mph 26.5 mph N/A   Clear
2:55 AM 17.6 °F 1.7 °F 1.4 °F 49% 30.04 in 10.0 mi WNW 18.4 mph 26.5 mph N/A   Partly Cloudy
3:15 AM 17.6 °F 6.4 °F 1.4 °F 49% 30.04 in 10.0 mi WNW 9.2 mph 19.6 mph N/A   Scattered Clouds
3:35 AM 17.6 °F 4.3 °F 3.2 °F 53% 30.04 in 10.0 mi NW 12.7 mph 23.0 mph N/A   Partly Cloudy
3:55 AM 17.6 °F 8.2 °F 3.2 °F 53% 30.04 in 10.0 mi NW 6.9 mph 19.6 mph N/A   Scattered Clouds
4:15 AM 17.6 °F 8.2 °F 6.8 °F 63% 30.04 in 10.0 mi NW 6.9 mph - N/A   Mostly Cloudy
4:35 AM 17.6 °F 5.0 °F 5.0 °F 58% 30.04 in 10.0 mi NW 11.5 mph 18.4 mph N/A   Mostly Cloudy
4:55 AM 17.6 °F 5.0 °F 6.8 °F 63% 30.04 in 10.0 mi WNW 11.5 mph - N/A   Overcast
5:15 AM 17.6 °F 9.3 °F 8.6 °F 68% 30.04 in 10.0 mi NW 5.8 mph - N/A   Overcast
5:35 AM 17.6 °F 8.2 °F 8.6 °F 68% 30.04 in 10.0 mi WNW 6.9 mph - N/A   Mostly Cloudy
5:55 AM 17.6 °F 7.3 °F 8.6 °F 68% 30.03 in 10.0 mi WNW 8.1 mph - N/A   Overcast
6:15 AM 17.6 °F 6.4 °F 10.4 °F 73% 30.03 in 9.0 mi West 9.2 mph - N/A   Overcast
6:35 AM 19.4 °F 6.0 °F 8.6 °F 63% 30.03 in 10.0 mi WNW 13.8 mph 25.3 mph N/A   Overcast
6:55 AM 19.4 °F 7.9 °F 6.8 °F 58% 30.03 in 10.0 mi WNW 10.4 mph 20.7 mph N/A   Overcast
7:15 AM 19.4 °F 10.4 °F 6.8 °F 58% 30.04 in 10.0 mi WNW 6.9 mph 20.7 mph N/A   Overcast
7:35 AM 19.4 °F 9.5 °F 5.0 °F 54% 30.04 in 10.0 mi WNW 8.1 mph 24.2 mph N/A   Overcast
7:55 AM 19.4 °F 6.6 °F 6.8 °F 58% 30.05 in 10.0 mi West 12.7 mph 19.6 mph N/A   Overcast
8:15 AM 19.4 °F 7.2 °F 3.2 °F 49% 30.06 in 10.0 mi WNW 11.5 mph 28.8 mph N/A   Overcast
8:35 AM 19.4 °F 5.5 °F 3.2 °F 49% 30.07 in 10.0 mi WNW 15.0 mph 31.1 mph N/A   Overcast
8:55 AM 19.4 °F 8.6 °F 3.2 °F 49% 30.08 in 10.0 mi NW 9.2 mph 23.0 mph N/A   Overcast
9:15 AM 19.4 °F 6.0 °F 5.0 °F 54% 30.08 in 10.0 mi WNW 13.8 mph 21.9 mph N/A   Overcast
9:35 AM 19.4 °F 7.2 °F 5.0 °F 54% 30.09 in 10.0 mi WNW 11.5 mph 20.7 mph N/A   Overcast
9:55 AM 19.4 °F 9.5 °F 3.2 °F 49% 30.10 in 10.0 mi NW 8.1 mph 23.0 mph N/A   Overcast
10:15 AM 21.2 °F 10.1 °F 3.2 °F 46% 30.10 in 10.0 mi WNW 10.4 mph 20.7 mph N/A   Overcast
10:35 AM 21.2 °F 10.9 °F 3.2 °F 46% 30.10 in 10.0 mi NW 9.2 mph 21.9 mph N/A   Mostly Cloudy
10:55 AM 21.2 °F 10.9 °F 3.2 °F 46% 30.11 in 10.0 mi WNW 9.2 mph 23.0 mph N/A   Partly Cloudy
11:15 AM 23.0 °F 12.4 °F 3.2 °F 43% 30.11 in 10.0 mi NW 10.4 mph 24.2 mph N/A   Mostly Cloudy
11:35 AM 23.0 °F 9.6 °F 5.0 °F 46% 30.11 in 10.0 mi West 16.1 mph 26.5 mph N/A   Mostly Cloudy
11:55 AM 24.8 °F 12.9 °F 5.0 °F 43% 30.10 in 10.0 mi West 13.8 mph 19.6 mph N/A   Scattered Clouds
12:15 PM 24.8 °F 15.3 °F 3.2 °F 40% 30.10 in 10.0 mi WNW 9.2 mph 20.7 mph N/A   Scattered Clouds
12:35 PM 26.6 °F 15.7 °F 5.0 °F 40% 30.09 in 10.0 mi NW 12.7 mph 19.6 mph N/A   Scattered Clouds
12:55 PM 26.6 °F 13.8 °F 5.0 °F 40% 30.09 in 10.0 mi West 17.3 mph 26.5 mph N/A   Partly Cloudy
1:15 PM 26.6 °F 16.2 °F 5.0 °F 40% 30.10 in 10.0 mi WNW 11.5 mph 25.3 mph N/A   Partly Cloudy
1:35 PM 26.6 °F 16.8 °F 3.2 °F 37% 30.09 in 10.0 mi WNW 10.4 mph 24.2 mph N/A   Clear
1:55 PM 26.6 °F 15.2 °F 5.0 °F 40% 30.10 in 10.0 mi NW 13.8 mph 23.0 mph N/A   Clear
2:15 PM 28.4 °F 20.4 °F 6.8 °F 40% 30.10 in 10.0 mi NW 8.1 mph 16.1 mph N/A   Clear
2:35 PM 28.4 °F 18.0 °F 5.0 °F 37% 30.11 in 10.0 mi WNW 12.7 mph 23.0 mph N/A   Clear
2:55 PM 28.4 °F 19.1 °F 5.0 °F 37% 30.12 in 10.0 mi WNW 10.4 mph 20.7 mph N/A   Clear
3:15 PM 28.4 °F 18.0 °F 5.0 °F 37% 30.12 in 10.0 mi WNW 12.7 mph 21.9 mph N/A   Clear
3:35 PM 28.4 °F 20.4 °F 5.0 °F 37% 30.13 in 10.0 mi West 8.1 mph 21.9 mph N/A   Clear
3:55 PM 28.4 °F 20.4 °F 5.0 °F 37% 30.13 in 10.0 mi WNW 8.1 mph 19.6 mph N/A   Clear
4:15 PM 28.4 °F 18.5 °F 5.0 °F 37% 30.13 in 10.0 mi WNW 11.5 mph 16.1 mph N/A   Clear
4:35 PM 28.4 °F 21.2 °F 5.0 °F 37% 30.13 in 10.0 mi WNW 6.9 mph 18.4 mph N/A   Clear
4:55 PM 28.4 °F 19.1 °F 5.0 °F 37% 30.13 in 10.0 mi West 10.4 mph 17.3 mph N/A   Clear
5:15 PM 28.4 °F 20.4 °F 5.0 °F 37% 30.13 in 10.0 mi WNW 8.1 mph - N/A   Clear
5:35 PM 26.6 °F 19.1 °F 5.0 °F 40% 30.13 in 10.0 mi WNW 6.9 mph - N/A   Clear
5:55 PM 26.6 °F 18.2 °F 5.0 °F 40% 30.13 in 10.0 mi WNW 8.1 mph - N/A   Clear
6:15 PM 26.6 °F 21.2 °F 5.0 °F 40% 30.13 in 10.0 mi West 4.6 mph - N/A   Clear
6:35 PM 26.6 °F 20.0 °F 5.0 °F 40% 30.13 in 10.0 mi West 5.8 mph - N/A   Clear
6:55 PM 26.6 °F 21.2 °F 5.0 °F 40% 30.13 in 10.0 mi West 4.6 mph - N/A   Clear
7:15 PM 24.8 °F 20.5 °F 5.0 °F 43% 30.13 in 10.0 mi West 3.5 mph - N/A   Clear
7:35 PM 24.8 °F 19.1 °F 5.0 °F 43% 30.13 in 10.0 mi WSW 4.6 mph - N/A   Clear
7:55 PM 23.0 °F 18.4 °F 3.2 °F 43% 30.13 in 10.0 mi West 3.5 mph - N/A   Clear
8:15 PM 24.8 °F 19.1 °F 6.8 °F 46% 30.12 in 10.0 mi WSW 4.6 mph - N/A   Clear
8:35 PM 19.4 °F 14.3 °F 3.2 °F 49% 30.13 in 10.0 mi West 3.5 mph - N/A   Clear
8:55 PM 19.4 °F 14.3 °F 5.0 °F 54% 30.13 in 10.0 mi West 3.5 mph - N/A   Clear
9:15 PM 19.4 °F 14.3 °F 6.8 °F 58% 30.13 in 10.0 mi West 3.5 mph - N/A   Clear
9:35 PM 17.6 °F 10.7 °F 3.2 °F 53% 30.13 in 10.0 mi WSW 4.6 mph - N/A   Clear
9:55 PM 15.8 °F - 3.2 °F 58% 30.12 in 10.0 mi Calm Calm - N/A   Clear
10:15 PM 17.6 °F - 5.0 °F 58% 30.12 in 10.0 mi Calm Calm - N/A   Clear
10:35 PM 15.8 °F - 5.0 °F 62% 30.12 in 10.0 mi Calm Calm - N/A   Clear
10:55 PM 15.8 °F - 5.0 °F 62% 30.11 in 10.0 mi Calm Calm - N/A   Clear
11:15 PM 15.8 °F - 8.6 °F 73% 30.10 in 10.0 mi Calm Calm - N/A   Clear
11:35 PM 15.8 °F - 8.6 °F 73% 30.08 in 10.0 mi Calm Calm - N/A   Clear
11:55 PM 15.8 °F - 8.6 °F 73% 30.08 in 10.0 mi Calm Calm - N/A   Clear